Location: Newark
(44.9333°N, 0.5667°E)
Time: 02:11:22
(UTC+00:00)

UWE-3 - Pass Details

Date: 19 February 2020
Orbit: 585 x 683 km, 97.6° (Epoch: 08 April)

Event Time Altitude Azimuth Distance (km) Brightness Sun altitude
Rises 06:03:29 0° 6° (N) 3,019 ? -9.5°
Reaches altitude 10° 06:05:46 10° 1° (N) 2,112 ? -9.1°
Maximum altitude 06:10:11 46° 289° (WNW) 920 ? -8.3°
Drops below altitude 10° 06:14:37 10° 217° (SW) 2,121 ? -7.5°
Sets 06:16:55 0° 211° (SSW) 3,033 ? -7.1°
